Regional Weather Roundup
Issued by NWS Newport/Morehead, NC

Current Version | Previous Version | Text Only | Print | Product List | Glossary On
Versions: 1 2 3 4 5 6 7 8 9 10 11 12 13 14 15 16 17 18 19 20 21 22 23 24 25 26 27 28 29 30 31 32 33 34 35 36 37 38 39 40 41 42 43 44 45 46 47 48 49 50
680
ASUS42 KMHX 291313
RWRMHX
WEATHER ROUNDUP FOR EASTERN NORTH CAROLINA
NATIONAL WEATHER SERVICE NEWPORT/MOREHEAD CITY NC
900 AM EDT THU JUN 29 2017

NOTE: "FAIR" INDICATES FEW OR NO CLOUDS BELOW 12,000 FEET
WITH NO SIGNIFICANT WEATHER AND/OR OBSTRUCTIONS TO VISIBILITY

NCZ015>017-031-032-045>047-102-103-291400-
NORTH COAST

CITY           SKY/WX    TMP DP  RH WIND       PRES   REMARKS
EDENTON        CLOUDY    77  67  71 CALM      30.24S
ELIZABETH CITY CLOUDY    76  68  76 S5        30.24R
KITTY HAWK     MOSUNNY   76  64  65 SE3       30.23S
MANTEO         CLOUDY    77  64  64 S8        30.24F

$$

NCZ045>047-081-094-103-104-291400-
CENTRAL COAST

CITY           SKY/WX    TMP DP  RH WIND       PRES   REMARKS
FRISCO         NOT AVBL

$$

NCZ095-097-098-100-101-291400-
SOUTHERN COAST

CITY           SKY/WX    TMP DP  RH WIND       PRES   REMARKS
BEAUFORT       SUNNY     80  67  64 E6        30.23S
CEDAR ISLAND   NOT AVBL
JACKSONVILLE   SUNNY     77  64  64 E3        30.23R
PINEY ISLAND   SUNNY    N/A N/A N/A NE7       30.23S
WILMINGTON     SUNNY     78  65  63 NE5       30.23R


$$

NCZ011>013-027>030-043-044-078>080-089-090>093-098-291400-
COASTAL PLAIN

CITY           SKY/WX    TMP DP  RH WIND       PRES   REMARKS
AHOSKIE          N/A     69  63  80 CALM      30.24S
CLINTON        SUNNY     74  64  71 CALM      30.24S
ELIZABETHTOWN  NOT AVBL
GOLDSBORO      SUNNY     74  66  76 CALM      30.22S
GREENVILLE     CLOUDY    73  61  64 CALM      30.24S
HAVELOCK       SUNNY     80  62  54 E5        30.24S
KENANSVILLE    SUNNY     72  61  68 CALM      30.24S
KINSTON        SUNNY     73  61  64 CALM      30.24S
NEW BERN       MOSUNNY   77  66  68 SE5       30.24S
RICHLANDS      SUNNY     76  62  62 S5        30.24R
ROCKY MOUNT    CLOUDY    71  64  78 CALM      30.23R
WASHINGTON     CLOUDY   N/A N/A N/A S3        30.24S
WHITEVILLE     SUNNY     75  59  57 E3        30.22S

$$

AMZ130-135-150-152-154-156-158-170-250-252-270-ANZ085-086-088-633-658-670-291400-
MARINE OBSERVATIONS

STATION/POSITION TIME  TEMP    WIND        PRES    WAVE   SWELL
                       AIR SEA DIR/SP/G            HT/PER HT/PER
                 (UTC) (F)     (DEG/KT/KT) (MB)    (FT/S) (FT/S)
CHESAPEAKE LIGHT NOT AVBL
64 E VA BEACH    1250   74 73  160/  8/ 10 1024.6    1/ 8   2/ 8
DUCK             1248   74 72  150/  8/  9 1023.6
2 E DUCK         NOT AVBL
OREGON INLET     1242   76 76  110/  5/ 10 1024.1
13E OREGON INLT  1248      74                N/A     2/ 7   2/ 7
HATTERAS CG      1248   78 77   90/  5/  8 1024.0
DIAMOND BUOY     1250   79 83  110/ 10/ 10 1024.0    2/ 7   2/ 7
CAPE LOOKOUT     1300   78      40/ 10/ 11 1023.3
BEAUFORT LAB     1248   78 78   60/  6/ 11 1023.0
30 SE NEW RVR IN 1208   79 80   60/  6/ 10 1023.3
30 SE NEW RVR IN 1243      80                N/A     2/ 7
27 SE WRIGHTSVLE 1208   80 80   70/  8/ 10 1023.1
5 SE WRIGHTSVLE  1208   77 79   40/  8/ 10 1023.2
225 S CAPE HAT   1250   79 80   50/ 14/ 16 1022.0    3/ 7   2/ 7
41 SE CHARLESTON 1250   80 81   90/ 12/ 14 1021.9    3/ 6   2/ 6

$$




USA.gov is the U.S. government's official web portal to all federal, state and local government web resources and services.